Flag for U.S.A. Weather past 2 weeks in Victorville, California, U.S.A.

Now
70 °F

Clear.


Feels Like: 70 °F
Forecast: 52 / 83 °F
Wind: 8 mph from Southwest

Location: George Air Force Base / Victorvi


UV Index: 7 (High)

Visibility: 10 mi


Pressure: 30.08 "Hg

Humidity: 35%

Dew point: 41 °F

Location of VictorvilleLocation

Historic Weather in Victorville

°F

Victorville temperature yesterday

Maximum temperature yesterday: 82 °F (at 4:35 PM)
Minimum temperature yesterday: 50 °F (at 4:35 AM)
Average temperature yesterday: 66 °F

Past Weeks' High & Low Weather Summary

 TemperatureHumidityPressure
High88 °F (Apr 9, 2:15 PM)82% (Apr 19, 4:35 AM)30.26 "Hg (Apr 19, 4:35 AM)
Low39 °F (Apr 6, 4:15 AM)3% (Apr 9, 2:15 PM)29.77 "Hg (Apr 16, 4:35 PM)
Average65 °F28%30.00 "Hg
* Reported Apr 5 8:15 PM — Apr 20 8:15 PM, Victorville, Weather by CustomWeather, © 2014

Note: Actual official high and low records may vary slightly from our data, if they occured in-between our weather recording intervals... More about our weather records

Advertising

Historic Weather Conditions — Data for Previous 24 hours

 ConditionsComfort  
Time TempWeatherWind HumidityBarometerVisibility
8:15 PM
Apr 20
73 °FSunny.8 mph29%30.06 "Hg10 mi
7:55 PM75 °FSunny.10 mph25%30.05 "Hg10 mi
7:35 PM75 °FSunny.14 mph16%30.04 "Hg10 mi
7:15 PM77 °FSunny.14 mph15%30.04 "Hg10 mi
6:55 PM79 °FSunny.15 mph15%30.03 "Hg10 mi
6:15 PM81 °FSunny.20 mph14%30.01 "Hg10 mi
5:55 PM82 °FSunny.17 mph14%30.01 "Hg10 mi
5:35 PM82 °FSunny.18 mph14%30.02 "Hg10 mi
5:15 PM84 °FSunny.20 mph13%30.01 "Hg10 mi
4:55 PM84 °FSunny.18 mph13%30.01 "Hg10 mi
4:15 PM86 °FScattered clouds.14 mph12%30.02 "Hg10 mi
3:55 PM86 °FScattered clouds.10 mph12%30.02 "Hg10 mi
3:35 PM86 °FScattered clouds.18 mph12%30.02 "Hg10 mi
3:15 PM86 °FScattered clouds.9 mph11%30.03 "Hg10 mi
2:55 PM84 °FScattered clouds.7 mph10%30.04 "Hg10 mi
2:15 PM84 °FScattered clouds.6 mph10%30.05 "Hg10 mi
1:55 PM82 °FScattered clouds.3 mph13%30.05 "Hg10 mi
1:35 PM82 °FScattered clouds.5 mph13%30.06 "Hg10 mi
1:15 PM81 °FScattered clouds.5 mph14%30.06 "Hg10 mi
12:55 PM81 °FScattered clouds.No wind15%30.07 "Hg10 mi
12:35 PM81 °FScattered clouds.6 mph15%30.08 "Hg10 mi
12:15 PM79 °FScattered clouds.5 mph16%30.08 "Hg10 mi
11:55 AM79 °FScattered clouds.8 mph16%30.09 "Hg10 mi
11:35 AM79 °FScattered clouds.6 mph16%30.09 "Hg5 mi
11:15 AM75 °FScattered clouds.No wind18%30.10 "Hg10 mi
10:55 AM73 °FScattered clouds.3 mph22%30.10 "Hg10 mi
10:35 AM73 °FSunny.No wind23%30.10 "Hg10 mi
10:15 AM72 °FScattered clouds.5 mph25%30.10 "Hg10 mi
9:55 AM70 °FScattered clouds.5 mph27%30.10 "Hg10 mi
9:35 AM70 °FSunny.No wind29%30.10 "Hg10 mi
9:15 AM68 °FScattered clouds.3 mph30%30.10 "Hg10 mi
8:55 AM66 °FSunny.5 mph32%30.10 "Hg10 mi
8:35 AM64 °FScattered clouds.5 mph37%30.10 "Hg10 mi
8:15 AM63 °FSunny.6 mph39%30.10 "Hg10 mi
7:55 AM61 °FSunny.7 mph45%30.10 "Hg10 mi
7:15 AM55 °FSunny.8 mph55%30.09 "Hg10 mi
6:55 AM55 °FClear.6 mph55%30.08 "Hg10 mi
6:35 AM54 °FClear.8 mph58%30.08 "Hg10 mi
6:15 AM55 °FClear.9 mph55%30.08 "Hg10 mi
5:55 AM55 °FClear.7 mph51%30.07 "Hg10 mi
5:35 AM54 °FClear.6 mph51%30.06 "Hg10 mi
5:15 AM54 °FClear.6 mph51%30.07 "Hg10 mi
4:55 AM55 °FClear.5 mph47%30.06 "Hg10 mi
4:35 AM55 °FClear.5 mph51%30.06 "Hg10 mi
4:15 AM55 °FClear.3 mph51%30.06 "Hg10 mi
3:55 AM55 °FClear.7 mph51%30.06 "Hg10 mi
3:35 AM57 °FClear.8 mph41%30.08 "Hg10 mi
3:15 AM57 °FClear.10 mph48%30.08 "Hg10 mi
2:55 AM57 °FClear.8 mph51%30.07 "Hg10 mi
2:35 AM59 °FClear.6 mph48%30.07 "Hg10 mi
2:15 AM57 °FClear.5 mph51%30.07 "Hg10 mi
1:55 AM57 °FClear.7 mph51%30.08 "Hg10 mi
1:35 AM59 °FClear.7 mph48%30.08 "Hg10 mi
1:15 AM61 °FClear.7 mph45%30.08 "Hg10 mi
12:55 AM61 °FClear.6 mph45%30.08 "Hg10 mi
12:35 AM59 °FClear.6 mph45%30.08 "Hg7 mi
12:15 AM61 °FClear.6 mph39%30.08 "Hg10 mi
11:55 PM
Apr 19
61 °FClear.5 mph39%30.08 "Hg10 mi
11:15 PM63 °FClear.5 mph42%30.08 "Hg10 mi
10:55 PM64 °FClear.6 mph46%30.07 "Hg10 mi
10:35 PM64 °FClear.7 mph46%30.06 "Hg10 mi
10:15 PM64 °FClear.8 mph49%30.06 "Hg10 mi
9:55 PM66 °FClear.9 mph46%30.06 "Hg10 mi
9:35 PM66 °FClear.12 mph46%30.05 "Hg10 mi
9:15 PM66 °FClear.14 mph46%30.04 "Hg10 mi
Weather by CustomWeather, © 2014

See weather overview